Location: Bergnershof
(48.9468°N, 10.9431°E)
Time: 23:03:04
(UTC+00:00)

USA 308 - Visible Passes

Search period start: 24 June 2021 00:00
Search period end: 04 July 2021 00:00
Orbit: 568 x 576 km, 54.0° (Epoch: 10 May)

Date Brightness Start Highest point End Pass type
(mag) Time Alt. Az. Time Alt. Az. Time Alt. Az.
24 Jun 3.1 00:57:44 13° WSW 01:01:31 72° NNW 01:05:46 10° ENE visible
24 Jun 3.3 23:22:31 39° S 23:23:14 43° SE 23:27:17 10° ENE visible
25 Jun 3.4 00:58:57 10° W 01:03:10 59° NNW 01:07:22 10° ENE visible
25 Jun 5.1 21:47:12 11° ESE 21:47:12 11° ESE 21:47:25 10° E visible
25 Jun 2.9 23:23:15 36° SSW 23:24:46 60° SE 23:28:57 10° ENE visible
26 Jun 3.8 01:00:42 10° W 01:04:51 50° NNW 01:09:00 10° ENE visible
26 Jun 4.5 21:47:44 18° ESE 21:47:44 18° ESE 21:49:51 10° E visible
26 Jun 2.7 23:23:45 23° SW 23:26:19 80° SSE 23:30:35 10° ENE visible
27 Jun 4.0 01:02:27 10° W 01:06:33 45° N 01:10:39 10° ENE visible
27 Jun 3.8 21:47:54 26° SE 21:48:15 26° SE 21:51:50 10° ENE visible
27 Jun 2.9 23:23:54 11° WSW 23:27:55 79° NNW 23:32:11 10° ENE visible
28 Jun 4.2 01:04:12 10° WNW 01:08:16 42° N 01:12:20 10° ENE visible
28 Jun 3.4 21:47:20 20° SSW 21:49:42 37° SE 21:53:38 10° ENE visible
28 Jun 3.3 23:25:18 10° WSW 23:29:32 64° NNW 23:33:47 10° ENE visible
29 Jun 4.2 01:05:56 10° WNW 01:09:59 41° N 01:14:02 10° ENE visible
29 Jun 4.8 20:11:03 10° SE 20:12:01 11° SE 20:13:00 10° ESE visible
29 Jun 3.0 21:47:03 10° SW 21:51:10 52° SE 21:55:19 10° ENE visible
29 Jun 3.7 23:27:01 10° W 23:31:12 53° NNW 23:35:22 10° ENE visible
30 Jun 4.2 01:07:38 10° WNW 01:11:42 42° N 01:15:46 10° ENE visible
30 Jun 4.4 20:10:43 10° SSE 20:13:20 16° SE 20:15:57 10° E visible
30 Jun 2.8 21:48:28 10° SW 21:52:42 71° SSE 21:56:57 10° ENE visible
30 Jun 4.0 23:28:45 10° W 23:32:52 47° NNW 23:37:00 10° ENE visible
01 Jul 4.1 01:09:18 10° WNW 01:13:24 45° N 01:17:31 10° E visible
01 Jul 4.0 20:11:20 10° S 20:14:42 23° SE 20:18:03 10° E visible
01 Jul 2.9 21:50:00 10° WSW 21:54:16 88° NNW 21:58:32 10° ENE visible
01 Jul 4.2 23:30:30 10° W 23:34:34 43° N 23:38:39 10° ENE visible
02 Jul 3.8 01:10:55 10° WNW 01:15:05 51° NNE 01:19:15 10° E visible
02 Jul 3.6 20:12:18 10° SSW 20:16:06 32° SE 20:19:54 10° ENE visible
02 Jul 3.2 21:51:37 10° WSW 21:55:52 70° NNW 22:00:07 10° ENE visible
02 Jul 4.2 23:32:13 10° WNW 23:36:17 41° N 23:40:20 10° ENE visible
03 Jul 3.5 01:12:31 10° WNW 01:16:45 61° NNE 01:20:57 10° E visible
03 Jul 3.2 20:13:29 10° SW 20:17:33 45° SE 20:21:37 10° ENE visible
03 Jul 3.6 21:53:17 10° W 21:57:30 57° NNW 22:01:42 10° ENE visible
03 Jul 4.2 23:33:55 10° WNW 23:37:59 41° N 23:42:03 10° ENE visible
